Weather History for West Palm Beach, FL

Change the Weather History Date:

Sunday, December 11, 2011

  Actual Average Record
Temperature  
Mean Temperature 77 °F 69 °F  
Max Temperature 80 °F 77 °F 86 °F (1997)
Min Temperature 74 °F 61 °F 34 °F (1962)
Degree Days  
Heating Degree Days 0 2  
Month to date heating degree days 2 12  
Since 1 July heating degree days 3 24  
Cooling Degree Days 12 5  
Month to date cooling degree days 91 64  
Year to date cooling degree days 4661 3930  
Growing Degree Days 26 (Base 50)    
Moisture  
Dew Point 68 °F    
Average Humidity 77    
Maximum Humidity 87    
Minimum Humidity 67    
Precipitation  
Precipitation T in 0.10 in 2.03 in (1978)
Month to date precipitation 0.11 1.17  
Year to date precipitation 47.10 60.12  
Snow  
Snow 0.00 in - - ()
Month to date snowfall 0.0  
Since 1 July snowfall 0.0  
Snow Depth 0.00 in    
Sea Level Pressure  
Sea Level Pressure 30.11 in    
Wind  
Wind Speed 15 mph (ENE)    
Max Wind Speed 24 mph    
Max Gust Speed 29 mph    
Visibility 10 miles    
Events      
T = Trace of Precipitation, MM = Missing Value Source: NWS Daily Summary

Daily Weather History Graph

Daily Weather History Graph

Search for Another Location

Airport:

Trip Planner

Search our weather history database for the weather conditions in past years. The results will help you decide how hot, cold, wet, or windy it might be!

Date:

Astronomy

Dec. 11, 2011 Rise Set
Actual Time 6:58 AM EST 5:28 PM EST
Civil Twilight 6:33 AM EST 5:53 PM EST
Nautical Twilight 6:04 AM EST 6:22 PM EST
Astronomical Twilight 5:36 AM EST 6:51 PM EST
Moon 6:36 PM EST (12/11) 7:45 AM EST (12/11)
Length of Visible Light 11h 20m
Length of Day
10h 29m
Full, 99% of the Moon is Illuminated
Dec 11
Full
Dec 17
Last Quarter
Dec 24
New
Jan 1
First Quarter
Jan 9
Full

Hourly Weather History & Observations

Time (EST) Temp. Dew Point Humidity Pressure Visibility Wind Dir Wind Speed Gust Speed Precip Events Conditions
12:53 AM 75.0 °F 68.0 °F 79% 30.09 in 10.0 mi East 15.0 mph - N/A   Mostly Cloudy
1:53 AM 75.0 °F 68.0 °F 79% 30.08 in 10.0 mi East 11.5 mph - N/A   Mostly Cloudy
2:53 AM 73.9 °F 69.1 °F 85% 30.07 in 10.0 mi ENE 9.2 mph 18.4 mph 0.00 in   Mostly Cloudy
3:53 AM 75.0 °F 68.0 °F 79% 30.07 in 10.0 mi ENE 11.5 mph - N/A   Scattered Clouds
4:53 AM 75.0 °F 69.1 °F 82% 30.07 in 10.0 mi East 11.5 mph - N/A   Scattered Clouds
5:53 AM 75.0 °F 69.1 °F 82% 30.07 in 10.0 mi East 15.0 mph - N/A   Scattered Clouds
6:53 AM 75.0 °F 70.0 °F 84% 30.09 in 10.0 mi East 12.7 mph - N/A   Mostly Cloudy
7:16 AM 75.2 °F 69.8 °F 83% 30.09 in 10.0 mi East 12.7 mph - N/A   Mostly Cloudy
7:53 AM 75.0 °F 70.0 °F 84% 30.10 in 10.0 mi East 13.8 mph - N/A   Mostly Cloudy
8:53 AM 75.9 °F 71.1 °F 85% 30.13 in 10.0 mi East 17.3 mph 25.3 mph N/A   Mostly Cloudy
9:53 AM 78.1 °F 70.0 °F 76% 30.14 in 10.0 mi East 17.3 mph - N/A   Mostly Cloudy
10:53 AM 78.1 °F 69.1 °F 74% 30.14 in 10.0 mi East 16.1 mph - 0.00 in   Mostly Cloudy
11:36 AM 78.8 °F 64.4 °F 61% 30.14 in 10.0 mi East 18.4 mph 26.5 mph N/A   Mostly Cloudy
11:53 AM 78.1 °F 66.9 °F 68% 30.14 in 10.0 mi East 17.3 mph 23.0 mph N/A   Mostly Cloudy
12:53 PM 79.0 °F 68.0 °F 69% 30.12 in 10.0 mi ENE 18.4 mph 25.3 mph N/A   Overcast
1:53 PM 79.0 °F 69.1 °F 72% 30.10 in 10.0 mi ENE 15.0 mph - N/A   Mostly Cloudy
2:37 PM 78.8 °F 68.0 °F 69% 30.10 in 10.0 mi ENE 17.3 mph - N/A   Mostly Cloudy
2:53 PM 78.1 °F 68.0 °F 71% 30.10 in 10.0 mi ENE 17.3 mph 21.9 mph N/A   Mostly Cloudy
3:29 PM 78.8 °F 68.0 °F 69% 30.10 in 10.0 mi ENE 15.0 mph - N/A   Mostly Cloudy
3:53 PM 78.1 °F 68.0 °F 71% 30.10 in 10.0 mi ENE 17.3 mph 23.0 mph N/A   Mostly Cloudy
4:53 PM 75.9 °F 68.0 °F 76% 30.10 in 10.0 mi ENE 12.7 mph - N/A   Mostly Cloudy
5:53 PM 75.9 °F 68.0 °F 76% 30.11 in 10.0 mi ENE 15.0 mph - N/A   Mostly Cloudy
6:53 PM 75.9 °F 68.0 °F 76% 30.13 in 10.0 mi ENE 15.0 mph 19.6 mph N/A   Mostly Cloudy
7:45 PM 75.2 °F 68.0 °F 78% 30.13 in 10.0 mi ENE 15.0 mph 21.9 mph N/A   Mostly Cloudy
7:53 PM 75.0 °F 68.0 °F 79% 30.14 in 10.0 mi ENE 13.8 mph 23.0 mph N/A   Mostly Cloudy
8:23 PM 75.2 °F 68.0 °F 78% 30.14 in 10.0 mi East 18.4 mph - N/A   Mostly Cloudy
8:53 PM 75.0 °F 66.0 °F 73% 30.14 in 10.0 mi East 17.3 mph - N/A   Mostly Cloudy
9:53 PM 75.0 °F 68.0 °F 79% 30.14 in 10.0 mi East 15.0 mph - N/A   Scattered Clouds
10:53 PM 75.0 °F 68.0 °F 79% 30.13 in 10.0 mi East 15.0 mph - N/A   Scattered Clouds
11:53 PM 73.9 °F 69.1 °F 85% 30.12 in 10.0 mi East 12.7 mph - N/A   Mostly Cloudy